Regional Weather Roundup
Issued by NWS

Home | Current Version | Previous Version | Text Only | Print | Product List | Glossary On
Versions: 1 2 3 4 5 6 7 8 9 10 11 12 13 14 15 16 17 18 19 20 21 22 23 24 25 26 27 28 29 30 31 32 33 34 35 36 37 38 39 40 41 42 43 44 45 46 47 48 49 50
000
ASUS43 KBIS 260631
RWRND
NORTH DAKOTA REGIONAL WEATHER ROUNDUP
NATIONAL WEATHER SERVICE EASTERN NORTH DAKOTA/GRAND FORKS ND
100 AM CDT FRI MAY 26 2017

  NOTE: "FAIR" INDICATES FEW OR NO CLOUDS BELOW 12,000 FEET WITH NO
  SIGNIFICANT WEATHER AND/OR OBSTRUCTIONS TO VISIBILITY.

NDZ001>003-009>011-017-260700-
...NORTHWEST NORTH DAKOTA...

CITY           SKY/WX    TMP DP  RH WIND       PRES   REMARKS
WILLISTON      FAIR      51  42  71 W15       29.64R
6HR MIN TEMP:  50; 6HR MAX TEMP:  65;

MINOT          FAIR      55  44  66 SW12      29.56R
MINOT AFB      FAIR      52  44  74 W9        29.55R
6HR MIN TEMP:  52; 6HR MAX TEMP:  63;

$$

NDZ018>021-031>035-040>046-260700-
...SOUTHWEST NORTH DAKOTA...

CITY           SKY/WX    TMP DP  RH WIND       PRES   REMARKS
BISMARCK       FAIR      56  44  64 W10       29.64S
DICKINSON      MOCLDY    49  38  65 W17       29.68R
GARRISON         N/A     51  43  74 W14       29.59S
HETTINGER      FAIR      48  40  73 W17       29.73S
$$

NDZ004>008-012>016-024-026-027-054-260700-
...NORTHEAST NORTH DAKOTA...

CITY           SKY/WX    TMP DP  RH WIND       PRES   REMARKS
GRAND FORKS    FAIR      59  53  80 S10       29.54S
GRAND FORKS AF FAIR      53  49  89 W7        29.55R
DEVILS LAKE    FAIR      54  46  74 SW9       29.57R
$$

NDZ022-023-025-028>030-036>039-047>053-260700-
...SOUTHEAST NORTH DAKOTA...

CITY           SKY/WX    TMP DP  RH WIND       PRES   REMARKS
JAMESTOWN      FAIR      52  44  74 W6        29.60R
FARGO          FAIR      61  54  77 S15       29.58R
WAHPETON       FAIR      55  50  82 SE9       29.61S
$$




USA.gov is the U.S. government's official web portal to all federal, state and local government web resources and services.